Location: Cutler
(25.6150°N, 80.3110°W)
Time: 03:20:08
(UTC-05:00)

Vanguard 1 - Pass Details

Date: 26 January 2018
Orbit: 650 x 3833 km, 34.2° (Epoch: 23 February)

Event Time Altitude Azimuth Distance (km) Brightness Sun altitude
Rises 02:01:05 0° 293° (WNW) 4,015 - -68.7°
Reaches altitude 10° 02:03:21 10° 297° (WNW) 3,317 - -68.2°
Maximum altitude 02:11:59 66° 19° (NNE) 2,086 - -66.3°
Exits shadow 02:19:50 32° 90° (E) 3,687 12.9 -64.5°
Drops below altitude 10° 02:28:31 10° 100° (E) 5,984 14.3 -62.6°
Sets 02:34:12 0° 103° (ESE) 7,403 14.9 -61.3°
